Location: Lal�n
(42.6500°N, 8.1170°W)
Time: 23:49:08
(UTC+02:00)

ISS - Visible Passes

Search period start: 18 October 2019 00:00
Search period end: 27 October 2019 23:00
Orbit: 411 x 421 km, 51.6° (Epoch: 19 October)

Date Brightness Start Highest point End Pass type
(mag) Time Alt. Az. Time Alt. Az. Time Alt. Az.
23 Oct -0.4 07:35:58 10° SE 07:36:43 11° SE 07:37:28 10° ESE visible
24 Oct -2.7 08:21:09 10° SW 08:24:25 48° SE 08:27:40 10° ENE visible
25 Oct -1.8 07:32:59 10° SSW 07:35:55 28° SE 07:38:51 10° ENE visible
26 Oct -1.2 06:46:49 16° SSE 06:47:28 17° SE 06:49:43 10° E visible
26 Oct -3.7 08:20:33 10° WSW 08:23:53 64° NNW 08:27:14 10° NE visible
27 Oct -3.7 06:33:47 31° SW 06:35:16 77° SE 06:38:38 10° ENE visible
